Location: Clermont
(50.2608°N, 4.3172°E)
Time: 09:50:52
(UTC+00:00)

SAR-Lupe-2 - Pass Details

Date: 13 August 2020
Orbit: 482 x 484 km, 98.1° (Epoch: 24 August)

Event Time Altitude Azimuth Distance (km) Brightness Sun altitude
Rises 21:03:53 0° 19° (NNE) 2,561 7.7 -16.1°
Reaches altitude 10° 21:06:02 10° 25° (NNE) 1,676 6.6 -16.4°
Maximum altitude 21:09:30 46° 100° (E) 659 3.8 -16.7°
Enters shadow 21:10:11 40° 135° (SE) 724 3.9 -16.8°
